This is the latest recevied weather packets stored in our database for station/object WA7CUG. If no packets are shown the sender has not sent any weather packets the latest 10 day(s).
| Time | Temp. | Humidity | Pressure | Rain* | Wind** | Luminosity | Snow |
|---|---|---|---|---|---|---|---|
| 1778104520 | 28.89° C | 30% | 1010 hPa | 0 mm | - | 388 W/m² | - |
| 1778104215 | 29.44° C | 30% | 1010.1 hPa | 0 mm | - | 388 W/m² | - |
| 1778103912 | 29.44° C | 28% | 1009.9 hPa | 0 mm | - | 380 W/m² | - |
| 1778103609 | 29.44° C | 31% | 1010 hPa | 0 mm | - | 425 W/m² | - |
| 1778103308 | 29.44° C | 30% | 1010 hPa | 0 mm | - | 409 W/m² | - |
| 1778103004 | 30° C | 30% | 1010.2 hPa | 0 mm | - | 502 W/m² | - |
| 1778102701 | 30.56° C | 28% | 1010.2 hPa | 0 mm | - | 416 W/m² | - |
| 1778102395 | 30° C | 32% | 1010.2 hPa | 0 mm | - | 349 W/m² | - |
| 1778102091 | 30° C | 31% | 1010.1 hPa | 0 mm | - | 435 W/m² | - |
| 1778101789 | 29.44° C | 27% | 1010.3 hPa | 0 mm | - | 355 W/m² | - |
| 1778101485 | 29.44° C | 31% | 1010.4 hPa | 0 mm | - | 436 W/m² | - |
| 1778101183 | 29.44° C | 30% | 1010.5 hPa | 0 mm | - | 372 W/m² | - |
| 1778100879 | 29.44° C | 32% | 1010.5 hPa | 0 mm | - | 375 W/m² | - |
| 1778100575 | 30° C | 29% | 1010.3 hPa | 0 mm | - | 371 W/m² | - |
| 1778100273 | 29.44° C | 28% | 1010.4 hPa | 0 mm | - | 485 W/m² | - |
| 1778099970 | 29.44° C | 29% | 1010.5 hPa | 0 mm | - | 550 W/m² | - |
| 1778099667 | 28.89° C | 34% | 1010.5 hPa | 0 mm | - | 547 W/m² | - |
| 1778099364 | 28.89° C | 31% | 1010.5 hPa | 0 mm | - | 545 W/m² | - |
| 1778099061 | 28.89° C | 32% | 1010.5 hPa | 0 mm | - | 652 W/m² | - |
| 1778098757 | 28.89° C | 31% | 1010.7 hPa | 0 mm | - | 345 W/m² | - |
| 1778098455 | 28.33° C | 34% | 1010.8 hPa | 0 mm | - | 671 W/m² | - |
| 1778098151 | 28.33° C | 34% | 1010.8 hPa | 0 mm | - | 663 W/m² | - |
| 1778097847 | 28.33° C | 32% | 1010.7 hPa | 0 mm | - | 640 W/m² | - |
| 1778097544 | 27.78° C | 35% | 1010.9 hPa | 0 mm | - | 673 W/m² | - |
| 1778097241 | 27.22° C | 37% | 1010.9 hPa | 0 mm | - | 661 W/m² | - |
* Rain latest hour (hover to see other rain measurements)
** Current wind speed in m/s (hover to see current wind gust speed)